TimeEDT,TemperatureF,Dew PointF,Humidity,Sea Level PressureIn,VisibilityMPH,Wind Direction,Wind SpeedMPH,Gust SpeedMPH,PrecipitationIn,Events,Conditions,WindDirDegrees,DateUTC
12:15 AM,71.6,60.1,67,30.01,10.0,South,8.1,-,N/A,,Clear,190,2013-05-11 04:15:00
12:35 AM,71.2,59.9,67,30.01,10.0,SSW,10.4,-,N/A,,Clear,200,2013-05-11 04:35:00
12:55 AM,71.6,59.5,66,30.01,10.0,South,11.5,16.1,N/A,,Clear,190,2013-05-11 04:55:00
1:15 AM,71.6,59.4,65,30.01,10.0,South,10.4,16.1,N/A,,Clear,190,2013-05-11 05:15:00
1:35 AM,71.1,59.7,67,30.00,10.0,South,11.5,17.3,N/A,,Clear,190,2013-05-11 05:35:00
1:55 AM,70.9,59.7,68,29.99,10.0,South,12.7,16.1,N/A,,Clear,190,2013-05-11 05:55:00
2:15 AM,70.3,59.7,69,29.99,10.0,South,11.5,-,N/A,,Clear,190,2013-05-11 06:15:00
2:35 AM,70.3,59.5,69,29.99,10.0,South,12.7,16.1,N/A,,Clear,190,2013-05-11 06:35:00
2:55 AM,70.2,59.9,70,29.99,10.0,SSW,10.4,-,N/A,,Clear,200,2013-05-11 06:55:00
3:15 AM,69.8,60.1,71,30.00,10.0,South,9.2,-,N/A,,Clear,190,2013-05-11 07:15:00
3:35 AM,69.8,60.6,73,29.99,10.0,South,9.2,-,N/A,,Clear,190,2013-05-11 07:35:00
3:55 AM,69.4,61.0,74,29.99,10.0,SSW,9.2,-,N/A,,Clear,200,2013-05-11 07:55:00
4:15 AM,69.3,61.7,77,29.98,10.0,SSW,9.2,-,N/A,,Clear,200,2013-05-11 08:15:00
4:35 AM,69.6,62.6,78,29.98,10.0,SSW,10.4,-,N/A,,Clear,200,2013-05-11 08:35:00
4:55 AM,69.4,63.0,80,29.98,10.0,SSW,9.2,-,N/A,,Clear,200,2013-05-11 08:55:00
5:15 AM,69.3,63.5,82,29.98,10.0,SSW,10.4,-,N/A,,Clear,200,2013-05-11 09:15:00
5:35 AM,68.9,63.9,84,29.98,10.0,SSW,8.1,-,N/A,,Clear,200,2013-05-11 09:35:00
5:55 AM,68.5,64.0,85,29.98,10.0,SSW,9.2,-,N/A,,Clear,200,2013-05-11 09:55:00
6:15 AM,68.4,64.4,87,29.98,10.0,South,8.1,-,N/A,,Clear,190,2013-05-11 10:15:00
6:35 AM,68.0,64.4,88,29.99,10.0,SSW,8.1,-,N/A,,Clear,200,2013-05-11 10:35:00
6:55 AM,68.0,64.8,89,29.99,10.0,South,6.9,-,N/A,,Clear,190,2013-05-11 10:55:00
6:56 AM,68.0,64.4,88,29.98,10.0,SSW,6.9,-,N/A,,Clear,200,2013-05-11 10:56:00
7:56 AM,69.8,66.2,88,29.98,10.0,SSW,9.2,-,N/A,,Clear,200,2013-05-11 11:56:00
8:56 AM,75.2,66.2,73,29.96,10.0,SSW,10.4,19.6,N/A,,Scattered Clouds,200,2013-05-11 12:56:00
9:56 AM,77.0,66.2,69,29.95,10.0,SSW,10.4,-,N/A,,Mostly Cloudy,210,2013-05-11 13:56:00
10:56 AM,78.8,66.2,65,29.94,10.0,SSW,12.7,21.9,N/A,,Mostly Cloudy,210,2013-05-11 14:56:00
11:56 AM,80.6,66.2,61,29.92,10.0,SW,13.8,19.6,N/A,,Scattered Clouds,220,2013-05-11 15:56:00
12:56 PM,75.2,66.2,73,29.91,10.0,SSW,5.8,-,N/A,,Scattered Clouds,200,2013-05-11 16:56:00
1:56 PM,84.2,64.4,51,29.87,10.0,SW,11.5,17.3,N/A,,Clear,220,2013-05-11 17:56:00
2:56 PM,86.0,57.2,37,29.85,10.0,SSW,15.0,20.7,N/A,,Clear,200,2013-05-11 18:56:00
3:56 PM,86.0,53.6,33,29.83,10.0,SW,17.3,23.0,N/A,,Clear,230,2013-05-11 19:56:00
4:56 PM,84.2,51.8,33,29.83,10.0,WSW,11.5,18.4,N/A,,Clear,240,2013-05-11 20:56:00
5:56 PM,84.2,55.4,37,29.82,10.0,SSW,8.1,-,N/A,,Scattered Clouds,210,2013-05-11 21:56:00
6:56 PM,80.6,57.2,45,29.81,10.0,SW,8.1,-,N/A,,Clear,230,2013-05-11 22:56:00
7:56 PM,77.0,59.0,54,29.82,10.0,SSW,6.9,-,N/A,,Clear,210,2013-05-11 23:56:00
8:56 PM,75.2,60.8,61,29.84,10.0,SSW,9.2,-,N/A,,Clear,200,2013-05-12 00:56:00
9:15 PM,75.6,61.0,60,29.84,10.0,South,6.9,-,N/A,,Clear,190,2013-05-12 01:15:00
9:35 PM,74.8,61.7,64,29.85,10.0,South,9.2,-,N/A,,Clear,180,2013-05-12 01:35:00
9:55 PM,74.3,62.2,66,29.85,10.0,South,10.4,-,N/A,,Clear,190,2013-05-12 01:55:00
10:15 PM,73.9,62.4,67,29.85,10.0,SSW,9.2,-,N/A,,Clear,200,2013-05-12 02:15:00
10:35 PM,73.8,62.6,68,29.85,10.0,South,9.2,-,N/A,,Scattered Clouds,190,2013-05-12 02:35:00
10:55 PM,73.0,62.6,70,29.84,10.0,South,10.4,16.1,N/A,,Scattered Clouds,180,2013-05-12 02:55:00
11:15 PM,72.5,63.0,72,29.85,10.0,SSW,8.1,-,N/A,Rain,Light Rain,200,2013-05-12 03:15:00
11:35 PM,72.5,62.6,71,29.84,10.0,SSW,9.2,-,N/A,,Scattered Clouds,200,2013-05-12 03:35:00
11:55 PM,72.0,62.6,72,29.83,10.0,SSW,8.1,-,N/A,,Clear,200,2013-05-12 03:55:00